Regional Weather Roundup
Issued by NWS Memphis, TN

Home | Current Version | Previous Version | Text Only | Print | Product List | Glossary On
Versions: 1 2 3 4 5 6 7 8 9 10 11 12 13 14 15 16 17 18 19 20 21 22 23 24 25 26 27 28 29 30 31 32 33 34 35 36 37 38 39 40 41 42 43 44 45 46 47 48 49 50
000
ASUS44 KMEG 041500
RWRMEG
MEMPHIS CWA HOURLY WEATHER ROUNDUP
NATIONAL WEATHER SERVICE MEMPHIS TN
1000 AM CDT TUE AUG 04 2015

...WEST TENNESSEE...

CITY           SKY/WX    TMP DP  RH WIND       PRES   REMARKS
MEMPHIS INTL   MOSUNNY   92  68  45 W3        30.01S HX  96
NWS MEMPHIS      N/A     92 N/A N/A MISG        N/A
JACKSON        SUNNY     90  70  51 SW5       30.01S HX  95
LEXINGTON      SUNNY     86  73  66 S5        30.02S HX  93
DYERSBURG        N/A    N/A N/A N/A MISG        N/A
PARIS          SUNNY     86  72  62 SW6       30.02S HX  92


...EASTERN ARKANSAS...

CITY           SKY/WX    TMP DP  RH WIND       PRES   REMARKS
JONESBORO      SUNNY     88  70  55 W7        30.00S HX  93
WEST MEMPHIS   SUNNY     88  72  58 S5        30.00S HX  94
BATESVILLE     SUNNY     88  72  58 SW5       30.01S HX  94
WALNUT RIDGE   MOSUNNY   88  70  55 SW8       29.99F HX  92
BLYTHEVILLE    SUNNY     88  75  65 W5        30.00S HX  97
SEARCY         SUNNY     88  72  58 VRB5      30.02S HX  94
STUTTGART      SUNNY     90  72  55 S6        30.01R HX  96
PINE BLUFF     SUNNY     89  72  56 S3        30.00S HX  96
MONTICELLO     SUNNY     90  67  46 S5        30.00S HX  93


...NORTH MISSISSIPPI...

CITY           SKY/WX    TMP DP  RH WIND       PRES   REMARKS
TUPELO         SUNNY     90  69  50 CALM      30.02R HX  94
TUNICA         SUNNY     86  72  62 CALM      30.02S HX  92
GREENWOOD      SUNNY     88  69  53 SE5       30.00S HX  92
COLUMBUS       SUNNY     89  73  59 VRB1      30.01S HX  96
STARKVILLE     FAIR      88  72  58 CALM      30.02R HX  94
GOLDEN TRIANGL SUNNY     90  72  55 SE6       30.01R HX  96


...SOUTHEAST MISSOURI...

CITY           SKY/WX    TMP DP  RH WIND       PRES   REMARKS
WEST PLAINS    PTSUNNY   85  70  60 SW6       30.04S
POPLAR BLUFF   MOSUNNY   87  74  64 CALM      29.97F HX  95
CAPE GIRARDEAU MOSUNNY   86  78  77 CALM      29.98S HX  98


...NORTHWEST ALABAMA...

CITY           SKY/WX    TMP DP  RH WIND       PRES   REMARKS
MUSCLE SHOALS  SUNNY     88  72  58 CALM      30.04S HX  94


...MIDDLE TENNESSEE...

CITY           SKY/WX    TMP DP  RH WIND       PRES   REMARKS
NASHVILLE      MOSUNNY   88  68  51 CALM      30.03R HX  91
CLARKSVILLE    SUNNY     85  72  65 SW3       30.01S HX  91
COLUMBIA       SUNNY     90  73  58 VRB3      30.02S HX  98


...WESTERN KENTUCKY...

CITY           SKY/WX    TMP DP  RH WIND       PRES   REMARKS
PADUCAH        SUNNY     86  75  69 SW3       29.98S HX  95
FORT CAMPBELL  MOSUNNY   85  73  65 SW5       30.01R HX  92


...CENTRAL ARKANSAS...

CITY           SKY/WX    TMP DP  RH WIND       PRES   REMARKS
LITTLE ROCK    MOSUNNY   89  69  51 SE7       30.01R HX  93


SKY/WX REPORTED AS FAIR MEANS FEW OR NO CLOUDS BELOW
12 THOUSAND FEET.



USA.gov is the U.S. government's official web portal to all federal, state and local government web resources and services.